#timestamp,LO_Frequency,Hit,StdDev 
1660906815.2,286047005.7,N
1660906835.1,286047003.3,N
1660906836.0,286047003.3,N
1660906855.8,286046998.2,N
1660906875.7,286047000.3,N
1660906895.5,286047000.3,N
1660906915.3,286047000.6,N
1660906935.2,286047002.6,N
1660906955.9,286047001.5,N
1660906975.7,286047004.3,N
1660906995.6,286047002.0,N
1660907015.4,286047001.9,N
1660907035.2,286047005.9,N
1660907055.1,286047005.0,N
1660907056.0,286047005.0,N
1660907075.8,286047003.9,N
1660907095.7,286047004.0,N
1660907115.5,286047001.3,N
1660907135.3,286047000.0,N
1660907155.2,286047000.4,N
1660907175.0,286047001.4,N
1660907175.9,286047001.4,N
1660907195.8,286047004.2,N
1660907215.6,286047005.1,N
1660907235.4,286047008.0,Y
1660907255.3,286047007.5,P
1660907275.1,286047004.0,N
1660907295.8,286047000.0,N
1660907315.7,286047002.5,N
1660907335.5,286047003.8,N
1660907355.4,286047003.8,N
1660907375.2,286047002.6,N
1660907395.0,286047003.9,N
1660907395.9,286047003.9,N
1660907415.8,286047003.6,N
1660907435.6,286047002.2,N
1660907455.4,286047001.0,N
1660907475.3,286046999.3,N
1660907495.1,286047000.9,N
1660907515.9,286046998.2,N
1660907535.7,286046998.4,N
1660907555.5,286046999.6,N
1660907575.4,286046996.8,N
1660907595.2,286046995.3,N
1660907615.0,286046995.8,N
1660907616.0,286046995.8,N
1660907635.8,286046996.1,N
1660907655.6,286046993.3,N
1660907675.5,286046997.8,N
1660907695.3,286046996.5,N
1660907715.1,286046999.2,N
1660907765.9,286046998.1,E
1660907775.8,286046998.4,N
1660907795.7,286047000.4,P
1660907815.5,286047002.6,N
1660907835.3,286047002.2,N
1660907855.2,286047000.1,N
1660907875.0,286047004.1,N
1660907875.9,286047004.1,N
1660907895.8,286047003.6,N
1660907915.6,286047001.3,N
1660907935.4,286046998.2,N
1660907955.3,286046996.5,N
1660907975.1,286046998.2,N
1660907995.8,286046999.2,N
1660908015.7,286046995.4,N
1660908035.5,286046996.2,N
1660908055.4,286046993.6,N
1660908075.2,286046992.6,N
1660908095.0,286046991.7,N
1660908095.9,286046991.7,N
1660908115.8,286046996.2,N
1660908135.6,286046996.0,N
1660908155.5,286047000.6,N
1660908175.3,286047000.9,N
1660908195.1,286047000.8,N
1660908215.9,286047001.1,N
1660908235.7,286047001.1,N
1660908255.5,286046999.6,N
1660908275.4,286046998.9,N
1660908295.2,286046997.9,N
1660908315.1,286046998.6,N
1660908316.0,286046998.6,N
1660908335.8,286047001.1,N
1660908355.6,286047001.0,N
1660908375.5,286046998.3,N
1660908395.3,286046997.4,N
1660908415.1,286046999.1,N
1660908435.9,286046999.3,N
1660908455.7,286046995.8,N
1660908475.6,286046995.3,N
1660908495.4,286046995.1,N
1660908515.2,286046997.8,N
1660908535.1,286046999.2,N
1660908536.0,286046999.2,N
1660908555.8,286046994.9,N
1660908575.6,286046997.1,N
1660908595.5,286046995.3,N
1660908615.3,286046993.5,N
1660908635.2,286046994.0,N
1660908655.9,286046994.3,N
1660908675.7,286046995.5,N
1660908695.6,286046995.6,N
1660908715.4,286046994.1,N
1660908735.3,286046993.9,N
1660908755.1,286046992.5,Y
1660908775.8,286046996.1,P
1660908795.7,286046994.3,P
1660908815.5,286046993.2,P
1660908835.4,286046990.9,Y
1660908855.2,286046998.6,P
1660908875.0,286047000.8,N
1660908875.9,286047000.8,N
1660908895.8,286047000.4,N
1660908915.6,286047002.8,N
1660908935.4,286047001.8,N
1660908955.3,286047004.0,N
1660908975.1,286047001.7,N
1660908995.9,286046998.9,N
1660909015.7,286046996.6,N
1660909035.5,286046997.5,N
1660909055.4,286046997.1,N
1660909075.2,286046997.9,N
1660909095.0,286046996.0,N
1660909095.9,286046996.0,N
1660909115.8,286046993.3,N
1660909135.6,286046996.3,N
1660909155.5,286046993.7,N
1660909175.3,286046993.4,N
1660909195.1,286046994.0,N
1660909215.9,286046994.8,N
1660909235.7,286046992.6,N
1660909255.5,286046992.0,N
1660909275.4,286046992.4,N
1660909295.2,286046992.4,N
1660909315.1,286046995.6,N
1660909316.0,286046995.6,N
1660909335.8,286046996.4,N
1660909355.6,286046994.4,N
1660909375.5,286046994.3,N
1660909395.3,286046991.9,N
1660909415.2,286046990.9,N
1660909435.9,286046991.2,N
1660909455.7,286046988.5,Y
1660909475.6,286046994.0,P
1660909495.4,286046993.5,P
1660909515.2,286046994.7,P
1660909535.1,286046994.3,Y
1660909536.0,286046994.3,P
1660909555.8,286047001.4,P
1660909575.7,286047004.7,N
1660909595.5,286047007.5,N
1660909615.3,286047009.1,N
1660909635.2,286047008.2,N
1660909655.0,286047010.4,N
1660909655.9,286047010.4,N
1660909675.8,286047006.8,N
1660909695.6,286047006.1,N
1660909715.4,286047006.5,N
1660909735.3,286047007.6,N
1660909755.1,286047004.0,N
1660909775.8,286047000.7,N
1660909795.7,286046998.1,N
1660909815.5,286046998.6,N
1660909835.4,286046999.3,N
1660909855.2,286046998.5,N
1660909875.0,286046997.8,N
1660909875.9,286046997.8,N
1660909895.8,286046993.9,N
1660909915.6,286046994.7,N
1660909935.4,286046993.6,N
1660909955.3,286046993.7,N
1660909975.1,286046994.3,N
1660910025.9,286046994.4,E
1660910035.8,286046997.5,N
1660910055.7,286047000.0,P
1660910075.5,286047002.2,N
1660910095.3,286047002.2,N
1660910115.2,286047001.4,N
1660910135.9,286047002.5,N
1660910155.7,286047002.0,N
1660910175.6,286047003.5,N
1660910195.4,286047005.5,Y
1660910215.3,286047002.0,P
1660910235.1,286047003.8,P
1660910236.0,286047003.8,P
1660910255.8,286047002.9,N
1660910275.7,286047002.7,N
1660910295.5,286047001.0,N
1660910315.4,286046999.6,N
1660910335.2,286046999.4,N
1660910355.0,286046998.1,N
1660910355.9,286046998.1,N
1660910375.8,286047000.9,N
1660910395.6,286047000.7,N
